Weather History for Steamboat Springs, CO

Change the Weather History Date:

Wednesday, November 7, 2012

  Actual Average Record
Temperature  
Mean Temperature 44 °F -  
Max Temperature 63 °F 48 °F 65 °F (1931)
Min Temperature 24 °F 18 °F -3 °F (1922)
Degree Days  
Heating Degree Days 22    
Moisture  
Dew Point 17 °F    
Average Humidity 46    
Maximum Humidity 84    
Minimum Humidity 9    
Precipitation  
Precipitation 0.00 in - - ()
Sea Level Pressure  
Sea Level Pressure 30.19 in    
Wind  
Wind Speed 1 mph (WSW)    
Max Wind Speed 14 mph    
Max Gust Speed -    
Visibility 10 miles    
Events      
Averages and records for this station are not official NWS values.
T = Trace of Precipitation, MM = Missing Value Source: NWS Daily Summary

Daily Weather History Graph

Daily Weather History Graph

Search for Another Location

Airport:

Trip Planner

Search our weather history database for the weather conditions in past years. The results will help you decide how hot, cold, wet, or windy it might be!

Date:

Astronomy

Nov. 07, 2012 Rise Set
Actual Time 6:45 AM MST 4:56 PM MST
Civil Twilight 6:16 AM MST 5:25 PM MST
Nautical Twilight 5:43 AM MST 5:58 PM MST
Astronomical Twilight 5:11 AM MST 6:30 PM MST
Moon No Moon Rise 1:08 PM MST (11/7)
Length of Visible Light 11h 09m
Length of Day
10h 11m
Last Quarter, 42% of the Moon is Illuminated
Nov 7
Last Quarter
Nov 13
New
Nov 20
First Quarter
Nov 28
Full
Dec 6
Last Quarter

Hourly Weather History & Observations

Time (MST) Temp. Windchill Dew Point Humidity Pressure Visibility Wind Dir Wind Speed Gust Speed Precip Events Conditions
12:13 AM 33.3 °F - 23.0 °F 66% 30.33 in 10.0 mi Calm Calm - N/A   Clear
12:33 AM 33.3 °F - 23.0 °F 66% 30.32 in 10.0 mi Calm Calm - N/A   Clear
12:53 AM 33.8 °F - 23.0 °F 65% 30.32 in 10.0 mi Calm Calm - N/A   Clear
1:13 AM 32.2 °F - 22.8 °F 68% 30.31 in 10.0 mi Calm Calm - N/A   Clear
1:53 AM 29.3 °F - 22.3 °F 75% 30.31 in 10.0 mi Calm Calm - N/A   Clear
2:13 AM 31.6 °F - 22.5 °F 69% 30.30 in 10.0 mi Calm Calm - N/A   Clear
2:33 AM 28.0 °F - 22.1 °F 78% 30.30 in 10.0 mi Calm Calm - N/A   Clear
2:53 AM 30.6 °F - 22.6 °F 72% 30.29 in 10.0 mi Calm Calm - N/A   Clear
3:13 AM 30.0 °F - 22.6 °F 74% 30.29 in 10.0 mi Calm Calm - N/A   Clear
3:33 AM 28.9 °F - 22.5 °F 77% 30.28 in 10.0 mi Calm Calm - N/A   Clear
3:53 AM 31.5 °F - 23.0 °F 71% 30.27 in 10.0 mi Calm Calm - N/A   Clear
4:13 AM 25.7 °F - 21.4 °F 84% 30.28 in 10.0 mi Calm Calm - N/A   Clear
4:33 AM 29.1 °F - 22.3 °F 76% 30.28 in 10.0 mi Calm Calm - N/A   Clear
4:53 AM 27.3 °F - 21.9 °F 80% 30.28 in 10.0 mi Calm Calm - N/A   Clear
5:13 AM 28.4 °F - 22.6 °F 79% 30.28 in 10.0 mi Calm Calm - N/A   Clear
5:33 AM 27.0 °F - 21.6 °F 80% 30.28 in 10.0 mi Calm Calm - N/A   Clear
5:53 AM 28.0 °F - 22.5 °F 80% 30.28 in 10.0 mi Calm Calm - N/A   Clear
6:13 AM 27.1 °F - 21.6 °F 80% 30.28 in 10.0 mi Calm Calm - N/A   Clear
6:33 AM 26.2 °F - 21.0 °F 81% 30.28 in 10.0 mi Calm Calm - N/A   Clear
6:53 AM 24.8 °F - 20.7 °F 84% 30.28 in 10.0 mi Calm Calm - N/A   Clear
7:13 AM 28.0 °F - 22.3 °F 79% 30.29 in 10.0 mi Calm Calm - N/A   Clear
7:33 AM 26.6 °F - 21.2 °F 80% 30.29 in 10.0 mi Calm Calm - N/A   Clear
7:53 AM 28.8 °F - 22.8 °F 78% 30.29 in 10.0 mi Calm Calm - N/A   Clear
8:13 AM 31.5 °F - 23.9 °F 74% 30.29 in 10.0 mi Calm Calm - N/A   Clear
8:33 AM 32.0 °F - 23.9 °F 72% 30.29 in 10.0 mi Calm Calm - N/A   Clear
8:53 AM 33.6 °F - 24.1 °F 68% 30.28 in 10.0 mi Calm Calm - N/A   Clear
9:13 AM 36.5 °F - 24.1 °F 61% 30.27 in 10.0 mi Calm Calm - N/A   Clear
9:33 AM 40.1 °F - 25.3 °F 56% 30.26 in 10.0 mi Calm Calm - N/A   Clear
9:53 AM 42.6 °F - 24.6 °F 49% 30.25 in 10.0 mi Calm Calm - N/A   Clear
10:13 AM 44.6 °F - 25.3 °F 47% 30.24 in 10.0 mi Calm Calm - N/A   Clear
10:33 AM 47.1 °F - 23.9 °F 40% 30.24 in 10.0 mi Calm Calm - N/A   Clear
10:53 AM 49.6 °F - 22.3 °F 34% 30.23 in 10.0 mi Calm Calm - N/A   Clear
11:13 AM 52.5 °F - 21.2 °F 29% 30.21 in 10.0 mi Calm Calm - N/A   Clear
11:33 AM 55.6 °F - 20.7 °F 26% 30.19 in 10.0 mi Calm Calm - N/A   Clear
11:53 AM 58.6 °F - 18.5 °F 21% 30.17 in 10.0 mi Calm Calm - N/A   Clear
12:13 PM 59.9 °F - 12.2 °F 15% 30.16 in 10.0 mi Calm Calm - N/A   Clear
12:33 PM 60.1 °F - 11.5 °F 15% 30.14 in 10.0 mi Calm Calm - N/A   Clear
12:53 PM 61.3 °F - 10.0 °F 13% 30.13 in 10.0 mi Calm Calm - N/A   Clear
1:13 PM 61.7 °F - 9.1 °F 13% 30.12 in 10.0 mi SW 3.5 mph - N/A   Clear
1:33 PM 62.6 °F - 8.8 °F 12% 30.11 in 10.0 mi Calm Calm - N/A   Clear
1:53 PM 62.4 °F - 8.8 °F 12% 30.10 in 10.0 mi Calm Calm - N/A   Clear
2:13 PM 63.5 °F - 6.1 °F 10% 30.09 in 10.0 mi SW 4.6 mph - N/A   Clear
2:33 PM 63.1 °F - 6.6 °F 11% 30.09 in 10.0 mi West 3.5 mph - N/A   Clear
2:53 PM 63.7 °F - 5.2 °F 10% 30.08 in 10.0 mi WSW 11.5 mph - N/A   Clear
3:13 PM 63.7 °F - 4.3 °F 9% 30.08 in 10.0 mi West 11.5 mph - N/A   Clear
3:33 PM 63.5 °F - 3.0 °F 9% 30.08 in 10.0 mi WSW 13.8 mph - N/A   Clear
4:13 PM 61.3 °F - 5.2 °F 11% 30.08 in 10.0 mi West 6.9 mph - N/A   Clear
4:33 PM 59.7 °F - 7.0 °F 12% 30.07 in 10.0 mi West 4.6 mph - N/A   Clear
4:53 PM 57.0 °F - 7.9 °F 14% 30.07 in 10.0 mi Calm Calm - N/A   Clear
5:13 PM 55.6 °F - 8.6 °F 15% 30.08 in 10.0 mi Calm Calm - N/A   Clear
5:33 PM 53.6 °F - 10.6 °F 18% 30.08 in 10.0 mi Calm Calm - N/A   Clear
5:53 PM 51.8 °F - 10.6 °F 19% 30.09 in 10.0 mi Calm Calm - N/A   Clear
6:13 PM 52.0 °F - 11.1 °F 20% 30.10 in 10.0 mi Calm Calm - N/A   Clear
6:33 PM 48.2 °F - 12.9 °F 24% 30.10 in 10.0 mi ENE 3.5 mph - N/A   Clear
6:53 PM 49.6 °F - 12.7 °F 23% 30.10 in 10.0 mi Calm Calm - N/A   Clear
7:13 PM 46.2 °F - 13.6 °F 27% 30.10 in 10.0 mi Calm Calm - N/A   Clear
7:33 PM 44.8 °F - 14.5 °F 30% 30.09 in 10.0 mi Calm Calm - N/A   Clear
7:53 PM 46.2 °F - 13.6 °F 27% 30.10 in 10.0 mi Calm Calm - N/A   Clear
8:13 PM 42.6 °F - 14.5 °F 32% 30.10 in 10.0 mi Calm Calm - N/A   Clear
8:33 PM 39.7 °F - 16.9 °F 40% 30.10 in 10.0 mi Calm Calm - N/A   Clear
8:53 PM 41.0 °F - 16.3 °F 37% 30.10 in 10.0 mi Calm Calm - N/A   Clear
9:13 PM 39.9 °F - 16.9 °F 39% 30.10 in 10.0 mi Calm Calm - N/A   Clear
9:33 PM 39.0 °F - 17.4 °F 42% 30.10 in 10.0 mi Calm Calm - N/A   Clear
9:53 PM 38.7 °F - 17.4 °F 42% 30.10 in 10.0 mi Calm Calm - N/A   Clear
10:13 PM 35.1 °F - 18.3 °F 51% 30.10 in 10.0 mi Calm Calm - N/A   Clear
10:33 PM 36.0 °F 33.3 °F 18.0 °F 48% 30.09 in 10.0 mi West 3.5 mph - N/A   Clear
10:53 PM 34.7 °F - 18.3 °F 51% 30.09 in 10.0 mi Calm Calm - N/A   Clear
11:13 PM 33.8 °F - 18.3 °F 53% 30.09 in 10.0 mi Calm Calm - N/A   Clear
11:33 PM 34.7 °F - 18.1 °F 51% 30.08 in 10.0 mi Calm Calm - N/A   Clear